Plattsmouth, NE

8:19 PM CDT on March 23, 2017 (GMT -0500)
Plattsmouth Municipal

Weather History for KPMV - November, 2011

Change the Weather History Date:

Sunday, November 27, 2011

  Actual Average (KOFF) Record (KOFF)
Temperature  
Mean Temperature 32 °F -  
Max Temperature 37 °F 43 °F 69 °F (1998)
Min Temperature 26 °F 26 °F 10 °F (2002)
Degree Days  
Heating Degree Days 34    
Moisture  
Dew Point 20 °F    
Average Humidity 58    
Maximum Humidity 69    
Minimum Humidity 45    
Precipitation  
Precipitation 0.00 in - - ()
Sea Level Pressure  
Sea Level Pressure 30.23 in    
Wind  
Wind Speed 15 mph (NNW)    
Max Wind Speed 28 mph    
Max Gust Speed 36 mph    
Visibility 10 miles    
Events      
Averages and records for this station are not official NWS values.
T = Trace of Precipitation, MM = Missing Value Source: NWS Daily Summary

Daily Weather History Graph

Daily Weather History Graph

Search for Another Location

Airport or City:

Trip Planner

Search our weather history database for the weather conditions in past years. The results will help you decide how hot, cold, wet, or windy it might be!

Date:

Astronomy

Nov. 27, 2011 Rise Set
Actual Time 7:24 AM CST 4:57 PM CST
Civil Twilight 6:54 AM CST 5:27 PM CST
Nautical Twilight 6:20 AM CST 6:01 PM CST
Astronomical Twilight 5:47 AM CST 6:34 PM CST
Moon 9:50 AM CST (11/27) 7:37 PM CST (11/27)
Length of Visible Light 10h 33m
Length of Day
9h 33m
Waxing Crescent, 8% of the Moon is Illuminated
Nov 27
Waxing Crescent
Dec 2
First Quarter
Dec 10
Full
Dec 17
Last Quarter
Dec 24
New

Hourly Weather History & Observations

Time (CST) Temp. Windchill Dew Point Humidity Pressure Visibility Wind Dir Wind Speed Gust Speed Precip Events Conditions
12:15 AM 35.6 °F 24.8 °F 23.0 °F 60% 30.20 in 10.0 mi NNW 19.6 mph 29.9 mph N/A   Overcast
12:35 AM 35.6 °F 23.0 °F 23.0 °F 60% 30.19 in 10.0 mi NNW 27.6 mph 35.7 mph N/A   Overcast
12:55 AM 35.6 °F 24.8 °F 23.0 °F 60% 30.19 in 10.0 mi NNW 19.6 mph 28.8 mph N/A   Overcast
1:15 AM 35.6 °F 24.8 °F 23.0 °F 60% 30.19 in 10.0 mi NNW 19.6 mph 33.4 mph N/A   Overcast
1:35 AM 35.6 °F 26.2 °F 23.0 °F 60% 30.19 in 10.0 mi NNW 15.0 mph 23.0 mph N/A   Overcast
1:55 AM 35.6 °F 24.8 °F 23.0 °F 60% 30.20 in 10.0 mi NNW 19.6 mph 26.5 mph N/A   Overcast
2:15 AM 33.8 °F 22.8 °F 21.2 °F 60% 30.21 in 10.0 mi NW 18.4 mph - N/A   Overcast
2:35 AM 33.8 °F 23.5 °F 21.2 °F 60% 30.21 in 10.0 mi NW 16.1 mph 24.2 mph N/A   Overcast
2:55 AM 33.8 °F 22.8 °F 21.2 °F 60% 30.21 in 10.0 mi NNW 18.4 mph 23.0 mph N/A   Overcast
3:15 AM 33.8 °F 24.3 °F 21.2 °F 60% 30.21 in 10.0 mi NNW 13.8 mph 26.5 mph N/A   Overcast
3:35 AM 33.8 °F 22.5 °F 21.2 °F 60% 30.21 in 10.0 mi NNW 19.6 mph 26.5 mph N/A   Overcast
3:55 AM 33.8 °F 22.8 °F 21.2 °F 60% 30.21 in 10.0 mi NNW 18.4 mph 28.8 mph N/A   Overcast
4:15 AM 33.8 °F 22.8 °F 21.2 °F 60% 30.21 in 10.0 mi NNW 18.4 mph 29.9 mph N/A   Overcast
4:35 AM 33.8 °F 22.5 °F 21.2 °F 60% 30.21 in 10.0 mi North 19.6 mph 34.5 mph N/A   Overcast
4:55 AM 33.8 °F 24.3 °F 21.2 °F 60% 30.21 in 10.0 mi North 13.8 mph 28.8 mph N/A   Overcast
5:15 AM 33.8 °F 23.9 °F 21.2 °F 60% 30.21 in 10.0 mi NNW 15.0 mph 18.4 mph N/A   Overcast
5:35 AM 32.0 °F 20.8 °F 21.2 °F 64% 30.22 in 10.0 mi NNW 17.3 mph 23.0 mph N/A   Overcast
5:55 AM 32.0 °F 22.1 °F 21.2 °F 64% 30.23 in 10.0 mi NNW 13.8 mph 24.2 mph N/A   Overcast
6:15 AM 32.0 °F 22.5 °F 21.2 °F 64% 30.23 in 10.0 mi NNW 12.7 mph 19.6 mph N/A   Overcast
6:35 AM 30.2 °F 20.8 °F 19.4 °F 64% 30.23 in 10.0 mi NW 11.5 mph - N/A   Scattered Clouds
6:55 AM 28.4 °F 18.0 °F 17.6 °F 64% 30.24 in 10.0 mi NW 12.7 mph - N/A   Clear
7:15 AM 28.4 °F 18.0 °F 17.6 °F 64% 30.24 in 10.0 mi NW 12.7 mph - N/A   Clear
7:35 AM 26.6 °F 14.7 °F 17.6 °F 69% 30.25 in 10.0 mi NW 15.0 mph - N/A   Clear
7:55 AM 26.6 °F 15.2 °F 17.6 °F 69% 30.26 in 10.0 mi NW 13.8 mph - N/A   Scattered Clouds
8:15 AM 28.4 °F 18.0 °F 17.6 °F 64% 30.26 in 10.0 mi NW 12.7 mph - N/A   Mostly Cloudy
8:35 AM 28.4 °F 17.0 °F 17.6 °F 64% 30.27 in 10.0 mi NW 15.0 mph - N/A   Scattered Clouds
9:15 AM 28.4 °F 16.2 °F 17.6 °F 64% 30.28 in 10.0 mi NW 17.3 mph - N/A   Mostly Cloudy
9:35 AM 30.2 °F 19.8 °F 17.6 °F 60% 30.28 in 10.0 mi NW 13.8 mph - N/A   Scattered Clouds
9:55 AM 32.0 °F 22.1 °F 19.4 °F 60% 30.28 in 10.0 mi NW 13.8 mph 21.9 mph N/A   Clear
10:15 AM 32.0 °F 22.1 °F 19.4 °F 60% 30.28 in 10.0 mi NNW 13.8 mph 20.7 mph N/A   Clear
10:35 AM 32.0 °F 22.1 °F 21.2 °F 64% 30.28 in 10.0 mi NNW 13.8 mph 21.9 mph N/A   Scattered Clouds
10:55 AM 33.8 °F 23.9 °F 21.2 °F 60% 30.28 in 10.0 mi NNW 15.0 mph 23.0 mph N/A   Scattered Clouds
11:15 AM 33.8 °F 24.8 °F 21.2 °F 60% 30.27 in 10.0 mi NW 12.7 mph - N/A   Clear
11:55 AM 33.8 °F 24.3 °F 21.2 °F 60% 30.26 in 10.0 mi NNW 13.8 mph - N/A   Clear
12:15 PM 35.6 °F 26.6 °F 21.2 °F 56% 30.25 in 10.0 mi NNW 13.8 mph - N/A   Clear
12:35 PM 35.6 °F 26.6 °F 21.2 °F 56% 30.25 in 10.0 mi NNW 13.8 mph 19.6 mph N/A   Clear
12:55 PM 35.6 °F 28.0 °F 21.2 °F 56% 30.24 in 10.0 mi NNW 10.4 mph 16.1 mph N/A   Clear
1:15 PM 35.6 °F 28.6 °F 21.2 °F 56% 30.23 in 10.0 mi NW 9.2 mph 17.3 mph N/A   Clear
1:35 PM 37.4 °F 30.8 °F 21.2 °F 52% 30.22 in 10.0 mi North 9.2 mph - N/A   Clear
1:55 PM 37.4 °F 29.3 °F 19.4 °F 48% 30.22 in 10.0 mi NNW 12.7 mph 18.4 mph N/A   Clear
2:15 PM 37.4 °F 29.3 °F 19.4 °F 48% 30.21 in 10.0 mi NNW 12.7 mph 18.4 mph N/A   Clear
2:35 PM 37.4 °F 29.8 °F 19.4 °F 48% 30.21 in 10.0 mi NNW 11.5 mph 16.1 mph N/A   Clear
2:55 PM 37.4 °F 29.8 °F 19.4 °F 48% 30.21 in 10.0 mi NNW 11.5 mph 16.1 mph N/A   Clear
3:15 PM 37.4 °F 29.8 °F 19.4 °F 48% 30.21 in 10.0 mi NNW 11.5 mph - N/A   Clear
3:35 PM 37.4 °F 29.3 °F 19.4 °F 48% 30.21 in 10.0 mi NW 12.7 mph - N/A   Clear
3:55 PM 37.4 °F 29.8 °F 19.4 °F 48% 30.21 in 10.0 mi NW 11.5 mph - N/A   Clear
4:15 PM 37.4 °F 30.3 °F 17.6 °F 45% 30.21 in 10.0 mi NW 10.4 mph - N/A   Clear
4:35 PM 35.6 °F 30.7 °F 19.4 °F 52% 30.21 in 10.0 mi NNW 5.8 mph - N/A   Clear
4:55 PM 33.8 °F 29.6 °F 17.6 °F 52% 30.21 in 10.0 mi NNW 4.6 mph - N/A   Clear
5:15 PM 32.0 °F 26.4 °F 17.6 °F 55% 30.21 in 10.0 mi NNW 5.8 mph - N/A   Clear
5:35 PM 32.0 °F 26.4 °F 17.6 °F 55% 30.21 in 10.0 mi NNW 5.8 mph - N/A   Clear
5:55 PM 32.0 °F - 17.6 °F 55% 30.22 in 10.0 mi Calm Calm - N/A   Clear
6:15 PM 32.0 °F - 19.4 °F 60% 30.22 in 10.0 mi Calm Calm - N/A   Clear
6:35 PM 32.0 °F - 19.4 °F 60% 30.22 in 10.0 mi Calm Calm - N/A   Clear
6:55 PM 32.0 °F - 19.4 °F 60% 30.22 in 10.0 mi Calm Calm - N/A   Clear
7:15 PM 32.0 °F - 19.4 °F 60% 30.22 in 10.0 mi Calm Calm - N/A   Clear
7:35 PM 32.0 °F - 19.4 °F 60% 30.22 in 10.0 mi Calm Calm - N/A   Clear
7:55 PM 32.0 °F - 19.4 °F 60% 30.21 in 10.0 mi Calm Calm - N/A   Clear
8:15 PM 30.2 °F - 17.6 °F 60% 30.22 in 10.0 mi Calm Calm - N/A   Clear
8:35 PM 28.4 °F - 17.6 °F 64% 30.22 in 10.0 mi Calm Calm - N/A   Clear
8:55 PM 30.2 °F - 17.6 °F 60% 30.21 in 10.0 mi Calm Calm - N/A   Clear
9:15 PM 30.2 °F - 17.6 °F 60% 30.21 in 10.0 mi Calm Calm - N/A   Clear
9:35 PM 30.2 °F - 17.6 °F 60% 30.21 in 10.0 mi Calm Calm - N/A   Clear
9:55 PM 30.2 °F - 17.6 °F 60% 30.21 in 10.0 mi Calm Calm - N/A   Clear
10:15 PM 28.4 °F - 17.6 °F 64% 30.20 in 10.0 mi Calm Calm - N/A   Clear
10:35 PM 28.4 °F - 17.6 °F 64% 30.20 in 10.0 mi Calm Calm - N/A   Clear
10:55 PM 26.6 °F - 17.6 °F 69% 30.20 in 10.0 mi Calm Calm - N/A   Clear
11:15 PM 30.2 °F - 17.6 °F 60% 30.20 in 10.0 mi Calm Calm - N/A   Clear
11:35 PM 30.2 °F - 17.6 °F 60% 30.19 in 10.0 mi Calm Calm - N/A   Clear
11:55 PM 24.8 °F 16.9 °F 15.8 °F 69% 30.20 in 10.0 mi East 6.9 mph - N/A   Clear